Location: Crescent
(42.8242°N, 73.7329°W)
Time: 02:20:34
(UTC+00:00)

Explorer 7 - Pass Details

Date: 17 February 2026
Orbit: 430 x 541 km, 50.2° (Epoch: 13 March)

Event Time Altitude Azimuth Distance (km) Brightness Sun altitude
Rises 21:34:43 0° 268° (W) 2,449 11.6 8.5°
Reaches altitude 10° 21:36:58 10° 278° (W) 1,596 10.3 8.2°
Maximum altitude 21:40:16 33° 345° (NNW) 807 7.7 7.6°
Drops below altitude 10° 21:43:41 10° 51° (NE) 1,661 8.7 7.0°
Sets 21:46:04 0° 61° (ENE) 2,566 9.6 6.6°
